Williamsport, PA

5:12 PM EDT on April 23, 2017 (GMT -0400)
Williamsport Rgnl

Weather History for KIPT - November, 2011

Change the Weather History Date:

Friday, November 18, 2011

  Actual Average Record
Temperature  
Mean Temperature 36 °F 41 °F  
Max Temperature 44 °F 49 °F 73 °F (1896)
Min Temperature 28 °F 33 °F 11 °F (1924)
Degree Days  
Heating Degree Days 29 24  
Month to date heating degree days 353 382  
Since 1 July heating degree days 791 925  
Cooling Degree Days 0 0  
Month to date cooling degree days 0 0  
Year to date cooling degree days 992 702  
Moisture  
Dew Point 21 °F    
Average Humidity 56    
Maximum Humidity 75    
Minimum Humidity 36    
Precipitation  
Precipitation T in 0.14 in 1.98 in (1927)
Month to date precipitation 0.65 2.13  
Year to date precipitation 63.83 36.74  
Snow  
Snow T in 0.10 in 3.30 in (2007)
Month to date snowfall T 0.7  
Since 1 July snowfall 1.0 0.8  
Since 1 September snowfall 1.0 0.8  
Snow Depth T in    
Sea Level Pressure  
Sea Level Pressure 30.33 in    
Wind  
Wind Speed 7 mph (West)    
Max Wind Speed 18 mph    
Max Gust Speed 26 mph    
Visibility 10 miles    
Events Snow    
T = Trace of Precipitation, MM = Missing Value Source: NWS Daily Summary

Daily Weather History Graph

Daily Weather History Graph

Search for Another Location

Airport or City:

Trip Planner

Search our weather history database for the weather conditions in past years. The results will help you decide how hot, cold, wet, or windy it might be!

Date:

Astronomy

Nov. 18, 2011 Rise Set
Actual Time 6:58 AM EST 4:46 PM EST
Civil Twilight 6:29 AM EST 5:16 PM EST
Nautical Twilight 5:55 AM EST 5:49 PM EST
Astronomical Twilight 5:22 AM EST 6:22 PM EST
Moon No Moon Rise 12:35 PM EST (11/18)
Length of Visible Light 10h 46m
Length of Day
9h 47m
Waning Gibbous, 49% of the Moon is Illuminated
Nov 18
Waning Gibbous
Nov 25
New
Dec 2
First Quarter
Dec 10
Full
Dec 17
Last Quarter

Hourly Weather History & Observations

Time (EST) Temp. Windchill Dew Point Humidity Pressure Visibility Wind Dir Wind Speed Gust Speed Precip Events Conditions
12:54 AM 34.0 °F 28.8 °F 21.0 °F 59% 30.15 in 10.0 mi WNW 5.8 mph - N/A   Overcast
1:54 AM 34.0 °F 25.0 °F 21.9 °F 61% 30.19 in 10.0 mi WNW 12.7 mph 18.4 mph N/A   Mostly Cloudy
2:34 AM 32.0 °F 23.0 °F 24.8 °F 75% 30.20 in 2.0 mi West 11.5 mph 26.5 mph 0.00 in Snow Light Snow
2:43 AM 32.0 °F 24.8 °F 24.8 °F 75% 30.20 in 9.0 mi WNW 8.1 mph - 0.00 in Snow Light Snow
2:54 AM 33.8 °F 27.0 °F 23.0 °F 65% 30.21 in 10.0 mi WNW 8.1 mph - N/A   Partly Cloudy
3:54 AM 32.0 °F 26.4 °F 24.1 °F 73% 30.25 in 10.0 mi West 5.8 mph - N/A   Partly Cloudy
4:54 AM 30.0 °F 25.2 °F 23.0 °F 75% 30.28 in 10.0 mi WNW 4.6 mph - N/A   Clear
5:54 AM 30.9 °F 27.5 °F 21.9 °F 69% 30.31 in 10.0 mi West 3.5 mph - N/A   Clear
6:54 AM 28.0 °F 22.8 °F 21.0 °F 75% 30.34 in 10.0 mi WNW 4.6 mph - N/A   Clear
7:54 AM 33.1 °F 25.5 °F 23.0 °F 66% 30.37 in 10.0 mi West 9.2 mph - N/A   Clear
8:54 AM 35.1 °F 25.5 °F 21.9 °F 59% 30.38 in 10.0 mi West 15.0 mph 19.6 mph N/A   Clear
9:54 AM 37.0 °F 27.7 °F 21.9 °F 54% 30.40 in 10.0 mi West 16.1 mph 19.6 mph N/A   Clear
10:54 AM 37.9 °F 30.5 °F 21.9 °F 53% 30.41 in 10.0 mi West 11.5 mph - N/A   Clear
11:54 AM 41.0 °F 34.3 °F 21.9 °F 47% 30.39 in 10.0 mi WSW 11.5 mph - N/A   Clear
12:54 PM 42.1 °F 36.6 °F 19.9 °F 41% 30.36 in 10.0 mi WSW 9.2 mph - N/A   Clear
1:54 PM 43.0 °F 38.8 °F 19.9 °F 40% 30.37 in 10.0 mi WSW 6.9 mph - N/A   Clear
2:54 PM 43.0 °F 38.8 °F 19.0 °F 38% 30.36 in 10.0 mi West 6.9 mph - N/A   Clear
3:54 PM 42.1 °F 39.2 °F 18.0 °F 38% 30.36 in 10.0 mi WSW 4.6 mph - N/A   Clear
4:54 PM 37.9 °F 35.5 °F 21.0 °F 51% 30.37 in 10.0 mi South 3.5 mph - N/A   Clear
5:54 PM 35.1 °F 32.2 °F 21.9 °F 59% 30.36 in 10.0 mi ESE 3.5 mph - N/A   Clear
6:54 PM 34.0 °F 31.0 °F 21.9 °F 61% 30.38 in 10.0 mi NE 3.5 mph - N/A   Clear
7:54 PM 34.0 °F - 21.0 °F 59% 30.37 in 10.0 mi Calm Calm - N/A   Clear
8:54 PM 36.0 °F 33.3 °F 19.0 °F 50% 30.37 in 10.0 mi Variable 3.5 mph 16.1 mph N/A   Clear
9:54 PM 34.0 °F 27.2 °F 19.9 °F 56% 30.37 in 10.0 mi NE 8.1 mph - N/A   Clear
10:54 PM 36.0 °F 28.5 °F 19.0 °F 50% 30.36 in 10.0 mi ENE 10.4 mph - N/A   Overcast
11:54 PM 37.0 °F 31.6 °F 18.0 °F 46% 30.35 in 10.0 mi ENE 6.9 mph - N/A   Mostly Cloudy